Kosmos-1721

operational
NORAD ID: 16454 Int'l Des: 1986-002 Owner: GUKOS Country: SU
LEOCIRCULAR

About Kosmos-1721

Description loading...

Live Position

Loading 3D Globe...

Upcoming Passes

Altitude History

Altitude vs Time

uPlot chart will show altitude changes over time

Two-Line Element Set

1 16454U 86002F 26062.50916851 .00000000 00000-0 10561-3 0 9993
2 16454 73.9932 340.8750 0036025 6.2591 106.1360 12.52383865835478
Epoch: Mar 3, 2026 • Age: 40 hours

Current Status

Altitude 1490.4 km
Velocity 7.11 km/s
Sub-Earth Point -29.53°S, 132.52°E
Launch Date Jan 9, 1986
Age 40.1 years
Type other

Technical Details

Classification Payload
Mass 60.00 kg
Dry Mass 60.00 kg
Total Mass 60.00 kg
Length 0.80 m
Diameter 0.80 m
Span 0.80 m
Shape Poly
Manufacturer NPOPM
Bus Type Strela-1 11F625
Phase Status In Orbit
Owner/State GUKOS/SU

Large Constellations

Loading constellations...